TimeEST,TemperatureF,Dew PointF,Humidity,Sea Level PressureIn,VisibilityMPH,Wind Direction,Wind SpeedMPH,Gust SpeedMPH,PrecipitationIn,Events,Conditions,WindDirDegrees,DateUTC
12:15 AM,55.4,53.6,94,29.96,7.0,WSW,17.3,24.2,N/A,,Overcast,240,2013-12-22 05:15:00
12:35 AM,55.4,53.6,94,29.96,5.0,WSW,19.6,24.2,N/A,,Overcast,240,2013-12-22 05:35:00
12:55 AM,53.6,53.6,100,29.95,3.0,WSW,17.3,23.0,N/A,,Overcast,240,2013-12-22 05:55:00
1:15 AM,53.6,53.6,100,29.95,2.5,WSW,19.6,26.5,N/A,,Overcast,250,2013-12-22 06:15:00
1:35 AM,53.6,53.6,100,29.95,1.8,WSW,16.1,24.2,N/A,,Overcast,240,2013-12-22 06:35:00
1:55 AM,53.6,53.6,100,29.94,1.8,WSW,16.1,21.9,N/A,,Overcast,240,2013-12-22 06:55:00
2:15 AM,53.6,53.6,100,29.94,3.0,WSW,17.3,23.0,N/A,,Overcast,240,2013-12-22 07:15:00
2:35 AM,53.6,53.6,100,29.94,5.0,WSW,17.3,23.0,N/A,,Overcast,240,2013-12-22 07:35:00
2:55 AM,55.4,53.6,94,29.93,5.0,WSW,17.3,24.2,N/A,,Overcast,240,2013-12-22 07:55:00
3:15 AM,55.4,53.6,94,29.92,5.0,WSW,15.0,23.0,N/A,,Overcast,240,2013-12-22 08:15:00
3:35 AM,55.4,55.4,100,29.92,5.0,SW,16.1,23.0,N/A,,Overcast,230,2013-12-22 08:35:00
3:55 AM,55.4,53.6,94,29.91,5.0,WSW,17.3,-,N/A,,Overcast,240,2013-12-22 08:55:00
4:15 AM,55.4,53.6,94,29.91,5.0,WSW,17.3,23.0,N/A,,Overcast,240,2013-12-22 09:15:00
4:35 AM,55.4,55.4,100,29.90,6.0,SW,18.4,24.2,N/A,,Overcast,230,2013-12-22 09:35:00
4:55 AM,55.4,55.4,100,29.91,7.0,WSW,18.4,25.3,N/A,,Overcast,240,2013-12-22 09:55:00
5:15 AM,55.4,53.6,94,29.89,6.0,SW,23.0,29.9,N/A,,Overcast,230,2013-12-22 10:15:00
5:35 AM,57.2,55.4,94,29.88,7.0,SW,26.5,34.5,N/A,,Overcast,220,2013-12-22 10:35:00
5:55 AM,57.2,55.4,94,29.87,7.0,SSW,21.9,40.3,N/A,,Overcast,210,2013-12-22 10:55:00
6:15 AM,57.2,55.4,94,29.89,7.0,SW,20.7,29.9,N/A,,Overcast,220,2013-12-22 11:15:00
6:35 AM,57.2,55.4,94,29.90,6.0,WSW,21.9,34.5,N/A,Rain,Light Rain,240,2013-12-22 11:35:00
6:55 AM,55.4,55.4,100,29.89,5.0,SW,18.4,26.5,N/A,,Overcast,230,2013-12-22 11:55:00
7:15 AM,55.4,55.4,100,29.89,4.0,SW,18.4,29.9,N/A,,Overcast,230,2013-12-22 12:15:00
7:35 AM,57.2,55.4,94,29.89,3.0,WSW,21.9,29.9,N/A,,Overcast,240,2013-12-22 12:35:00
7:55 AM,57.2,57.2,100,29.88,4.0,SW,29.9,41.4,N/A,,Overcast,230,2013-12-22 12:55:00
8:15 AM,57.2,57.2,100,29.89,3.0,SW,23.0,34.5,N/A,,Overcast,230,2013-12-22 13:15:00
8:35 AM,57.2,57.2,100,29.90,3.0,SW,26.5,34.5,N/A,,Overcast,230,2013-12-22 13:35:00
8:55 AM,57.2,57.2,100,29.90,1.0,WSW,25.3,39.1,N/A,,Overcast,240,2013-12-22 13:55:00
9:15 AM,57.2,57.2,100,29.91,1.0,SW,31.1,40.3,N/A,,Overcast,230,2013-12-22 14:15:00
9:35 AM,57.2,57.2,100,29.91,0.8,SW,28.8,40.3,N/A,,Overcast,230,2013-12-22 14:35:00
9:55 AM,57.2,57.2,100,29.91,0.5,WSW,27.6,41.4,N/A,Fog,Fog,240,2013-12-22 14:55:00
10:15 AM,59.0,57.2,94,29.91,0.5,WSW,31.1,36.8,N/A,Fog,Fog,240,2013-12-22 15:15:00
10:35 AM,57.2,57.2,100,29.91,0.8,WSW,27.6,41.4,N/A,,Overcast,240,2013-12-22 15:35:00
10:55 AM,57.2,57.2,100,29.91,0.8,WSW,28.8,38.0,N/A,,Overcast,240,2013-12-22 15:55:00
11:15 AM,57.2,57.2,100,29.91,0.5,WSW,20.7,35.7,N/A,Fog,Fog,240,2013-12-22 16:15:00
11:35 AM,57.2,55.4,94,29.90,0.2,WSW,24.2,33.4,N/A,Fog,Fog,240,2013-12-22 16:35:00
11:55 AM,57.2,55.4,94,29.90,0.8,WSW,25.3,38.0,N/A,,Overcast,240,2013-12-22 16:55:00
12:15 PM,55.4,55.4,100,29.90,0.8,WSW,24.2,34.5,N/A,,Overcast,240,2013-12-22 17:15:00
12:35 PM,55.4,55.4,100,29.89,0.5,WSW,25.3,34.5,N/A,Fog,Fog,240,2013-12-22 17:35:00
12:55 PM,55.4,55.4,100,29.90,0.5,WSW,25.3,33.4,N/A,Fog,Fog,240,2013-12-22 17:55:00
1:15 PM,55.4,55.4,100,29.91,0.2,WSW,24.2,35.7,N/A,Fog,Fog,240,2013-12-22 18:15:00
1:35 PM,55.4,53.6,94,29.91,0.2,WSW,21.9,31.1,N/A,Fog,Fog,240,2013-12-22 18:35:00
1:55 PM,55.4,53.6,94,29.91,0.2,WSW,25.3,31.1,N/A,Fog,Fog,240,2013-12-22 18:55:00
2:15 PM,55.4,53.6,94,29.91,0.2,WSW,25.3,32.2,N/A,Fog,Fog,240,2013-12-22 19:15:00
2:35 PM,53.6,53.6,100,29.91,0.2,WSW,24.2,33.4,N/A,Fog,Fog,240,2013-12-22 19:35:00
2:55 PM,53.6,53.6,100,29.92,0.5,West,17.3,25.3,N/A,Fog,Fog,260,2013-12-22 19:55:00
3:15 PM,53.6,53.6,100,29.92,0.5,WSW,16.1,26.5,N/A,Fog,Fog,240,2013-12-22 20:15:00
3:35 PM,53.6,53.6,100,29.91,2.0,WSW,16.1,25.3,N/A,,Overcast,240,2013-12-22 20:35:00
3:55 PM,53.6,53.6,100,29.92,9.0,WSW,9.2,-,N/A,,Overcast,240,2013-12-22 20:55:00
4:15 PM,53.6,53.6,100,29.90,8.0,SSW,17.3,24.2,N/A,,Overcast,210,2013-12-22 21:15:00
4:35 PM,53.6,53.6,100,29.90,8.0,SW,11.5,24.2,N/A,,Mostly Cloudy,230,2013-12-22 21:35:00
4:55 PM,55.4,53.6,94,29.86,7.0,SSW,21.9,28.8,N/A,,Overcast,210,2013-12-22 21:55:00
5:15 PM,55.4,53.6,94,29.86,9.0,South,12.7,-,N/A,,Overcast,190,2013-12-22 22:15:00
5:35 PM,55.4,53.6,94,29.88,9.0,SW,16.1,21.9,N/A,,Overcast,220,2013-12-22 22:35:00
5:55 PM,57.2,53.6,88,29.90,10.0,SW,16.1,23.0,N/A,,Overcast,230,2013-12-22 22:55:00
6:15 PM,60.8,53.6,77,29.92,10.0,WSW,17.3,31.1,N/A,,Overcast,240,2013-12-22 23:15:00
6:35 PM,53.6,50.0,88,29.93,7.0,WNW,12.7,18.4,N/A,,Overcast,290,2013-12-22 23:35:00
6:55 PM,51.8,50.0,94,29.96,7.0,NW,10.4,-,N/A,,Overcast,320,2013-12-22 23:55:00
7:15 PM,53.6,51.8,94,29.99,7.0,NW,8.1,16.1,N/A,,Mostly Cloudy,310,2013-12-23 00:15:00
7:35 PM,55.4,53.6,94,29.98,9.0,West,10.4,-,N/A,,Overcast,260,2013-12-23 00:35:00
7:55 PM,48.2,44.6,87,29.98,10.0,NNE,10.4,-,N/A,,Overcast,30,2013-12-23 00:55:00
8:15 PM,44.6,41.0,87,29.98,10.0,NNE,5.8,-,N/A,,Overcast,30,2013-12-23 01:15:00
8:35 PM,44.6,42.8,93,30.00,10.0,NNW,4.6,-,N/A,,Overcast,330,2013-12-23 01:35:00
8:55 PM,44.6,41.0,87,29.98,10.0,East,4.6,-,N/A,,Overcast,80,2013-12-23 01:55:00
9:15 PM,42.8,41.0,93,30.00,10.0,NE,3.5,-,N/A,,Overcast,50,2013-12-23 02:15:00
9:35 PM,-9999,-9999,N/A,-9999,-9999.0,North,-9999.0,-,N/A,,Unknown,0,2013-12-23 02:35:00
9:55 PM,42.8,41.0,93,30.01,10.0,Calm,Calm,-,N/A,,Unknown,0,2013-12-23 02:55:00
10:15 PM,44.6,41.0,87,30.01,10.0,NE,5.8,-,N/A,,Overcast,40,2013-12-23 03:15:00
10:35 PM,44.6,41.0,87,30.01,10.0,NE,4.6,-,N/A,,Overcast,40,2013-12-23 03:35:00
10:55 PM,44.6,42.8,93,30.01,10.0,NNE,3.5,-,N/A,,Overcast,30,2013-12-23 03:55:00
11:15 PM,44.6,41.0,87,30.01,10.0,NE,3.5,-,N/A,,Overcast,50,2013-12-23 04:15:00
11:35 PM,44.6,41.0,87,30.01,10.0,ENE,3.5,-,N/A,,Overcast,60,2013-12-23 04:35:00
11:55 PM,44.6,41.0,87,30.00,10.0,East,3.5,-,N/A,,Overcast,90,2013-12-23 04:55:00